VANGUARD R/B, 16

Orbit data source: Space-Track

VANGUARD R/B, 16 is space debris in LEO originally from a launch on Mon, 17 Mar 1958 UTC launched from the Air Force Eastern Test Range (AFETR). Debris objects in space refer to the collection of defunct objects orbiting the Earth. Examples of debris include non-operational satellites, rocket bodies, and fragments generated from explosions, collisions, or faulty payload assembly.

Loading next visibility...
Identifier
16, 1958-002A
Orbit
LEO
Country
Flag of USUS
Related business
Manufacturer
GCR/Redlands
Mission
Spacecraft
Bus & Motor
33-KS-2800, Unknown motor
Mass
22 kg wet, 22 kg dry
Launch date (UTC)
1958-03-17 (68 years ago)
Launch vehicle
Unknown
Launch site
Air Force Eastern Test Range (AFETR)
Object type
Payload
Rocket body
Debris
Shape & HBR
Unknown
Radar Cross Section
Medium (>0.1 m² and <1 m²)

Expand to show TLE details & history
Last TLE update: 9 hours ago

TLE from 9 hours ago
0 VANGUARD R/B
1 00016U 58002A   26125.24245021  .00000082  00000-0  96974-4 0  9997
2 00016  34.2744  69.2302 2019069 299.1707  42.1697 10.49588522684402
Epoch: 2026-05-05T05:49Z
TLE epoch observation values (Epoch: 2026-05-05T05:49:07.698Z)
Latitude
0.00002°
Longitude
118.82805°
Altitude
1,317.581 km
Speed
7.641 km/s
True Right ascension
04h 36m 55s
True Declination
0° 00' 00"
Sunlit
Object was in daylight at epoch
Visualization orbit readout
Latitude
Unknown
Longitude
Unknown
Altitude
Unknown
Speed
Unknown
Apparent Right ascension
Unknown
Apparent Declination
Unknown
Sunlit
N/A
Visualization observer readout
Local Sidereal Time
22:40:22
Azimuth
Unknown
Elevation
Unknown
Doppler factor
Unknown
Orbital elements
Apogee altitude
4,215.97 km
Perigee altitude
656.588 km
Semi-major axis
8,814.416 km
Eccentricity
0.20191
Inclination
34.2744°
RAAN
69.2302°
Arg. of periapsis
299.1707°
True anomaly
60.88948°
Mean anomaly
42.1697°
Eccentric anomaly
51.18329°
Mean motion
2.62273 °/min
Orbital period
137.26 mins
BSTAR
0.000096974
Loading maneuver chart data...
Computing Atmospheric mass density...
Loading historical data...
Loading historical data...
Loading historical data...
Loading historical data...
Loading historical data...
Loading historical data...
Loading historical data...
Other satellites on launch #2 in the year 1958 (1958-03-17 UTC)

Documentation

Showing up to 5 results
|